When you browse on this site, cookies collect data to enhance your experience and personalize the content and advertising you see.
Visit our Privacy Policy to learn more. By continuing to use the site, you agree to this use of cookies and data.
  • In United Kingdom
  • List of Countries
  • For 7 days
  • Water Temperature
  • Weather Map
  • Weather Widgets
  • user-avatar
    Login

    Hourly Weather Goroka

    Today, 15 October, Tuesday

    Time Temperature Precipitation Wind Pressure Humidity
    00:00 +14°C° 0.1 mm 0 mps 624 mmHg 95%
    01:00 +14°C° 0.1 mm 0 mps 623 mmHg 95%
    02:00 +13°C° 0 mm 0 mps 623 mmHg 94%
    03:00 +13°C° 0 mm 0 mps 623 mmHg 94%
    04:00 +13°C° 0 mm 0 mps 622 mmHg 93%
    05:00 +14°C° 0 mm 0 mps 623 mmHg 92%
    06:00 +14°C° 0 mm 0 mps 623 mmHg 91%
    07:00 +15°C° 0 mm 0 mps 624 mmHg 90%
    08:00 +18°C° 0.1 mm 0 mps 625 mmHg 80%
    09:00 +21°C° 0.1 mm 0 mps 626 mmHg 69%
    10:00 +25°C° 0.1 mm 1 mps 627 mmHg 59%
    11:00 +26°C° 0.9 mm 1 mps 627 mmHg 61%
    12:00 +26°C° 0.9 mm 1 mps 626 mmHg 62%
    13:00 +26°C° 0.9 mm 1 mps 625 mmHg 64%
    14:00 +25°C° 1.5 mm 1 mps 625 mmHg 69%
    15:00 +24°C° 1.5 mm 1 mps 624 mmHg 75%
    16:00 +23°C° 1.5 mm 1 mps 624 mmHg 80%
    17:00 +21°C° 1.3 mm 1 mps 624 mmHg 85%
    18:00 +18°C° 1.3 mm 0 mps 623 mmHg 90%
    19:00 +16°C° 1.3 mm 0 mps 623 mmHg 95%
    20:00 +16°C° 1.1 mm 0 mps 624 mmHg 95%
    21:00 +16°C° 1.1 mm 0 mps 624 mmHg 95%
    22:00 +16°C° 1.1 mm 1 mps 624 mmHg 95%
    23:00 +16°C° 0.1 mm 1 mps 624 mmHg 96%

    Tomorrow, 16 October, Wednesday

    Time Temperature Precipitation Wind Pressure Humidity
    00:00 +16°C° 0.1 mm 1 mps 623 mmHg 96%
    01:00 +16°C° 0.1 mm 1 mps 623 mmHg 96%
    02:00 +16°C° 0 mm 1 mps 623 mmHg 96%
    03:00 +15°C° 0 mm 1 mps 623 mmHg 95%
    04:00 +15°C° 0 mm 1 mps 622 mmHg 95%
    05:00 +16°C° 0 mm 1 mps 623 mmHg 93%
    06:00 +15°C° 0 mm 0 mps 624 mmHg 92%
    07:00 +16°C° 0 mm 0 mps 624 mmHg 90%
    08:00 +19°C° 0.1 mm 0 mps 625 mmHg 79%
    09:00 +23°C° 0.1 mm 1 mps 626 mmHg 68%
    10:00 +26°C° 0.1 mm 1 mps 627 mmHg 56%
    11:00 +26°C° 1 mm 1 mps 626 mmHg 61%
    12:00 +26°C° 1 mm 1 mps 625 mmHg 65%
    13:00 +25°C° 1 mm 1 mps 625 mmHg 69%
    14:00 +24°C° 2.1 mm 1 mps 624 mmHg 75%
    15:00 +23°C° 2.1 mm 1 mps 624 mmHg 81%
    16:00 +22°C° 2.1 mm 1 mps 623 mmHg 87%
    17:00 +21°C° 1.6 mm 1 mps 623 mmHg 90%
    18:00 +18°C° 1.6 mm 0 mps 624 mmHg 93%
    19:00 +17°C° 1.6 mm 0 mps 624 mmHg 96%
    20:00 +17°C° 1.6 mm 0 mps 624 mmHg 96%
    21:00 +18°C° 1.6 mm 1 mps 624 mmHg 97%
    22:00 +18°C° 1.6 mm 1 mps 624 mmHg 97%
    23:00 +18°C° 0.6 mm 1 mps 624 mmHg 96%

    Day after tomorrow, 17 October, Thursday

    Time Temperature Precipitation Wind Pressure Humidity
    00:00 +16°C° 0.6 mm 1 mps 624 mmHg 96%
    01:00 +15°C° 0.6 mm 0 mps 623 mmHg 95%
    02:00 +15°C° 0.1 mm 0 mps 623 mmHg 94%
    03:00 +16°C° 0.1 mm 1 mps 623 mmHg 93%
    04:00 +16°C° 0.1 mm 1 mps 623 mmHg 92%
    05:00 +16°C° 0 mm 1 mps 623 mmHg 90%
    06:00 +16°C° 0 mm 1 mps 623 mmHg 88%
    07:00 +16°C° 0 mm 1 mps 624 mmHg 86%
    08:00 +19°C° 0 mm 1 mps 625 mmHg 73%
    09:00 +22°C° 0 mm 1 mps 626 mmHg 59%
    10:00 +25°C° 0 mm 1 mps 627 mmHg 45%
    11:00 +26°C° 0.1 mm 1 mps 627 mmHg 45%
    12:00 +26°C° 0.1 mm 1 mps 626 mmHg 45%
    13:00 +27°C° 0.1 mm 1 mps 626 mmHg 45%
    14:00 +26°C° 0.1 mm 1 mps 625 mmHg 49%
    15:00 +26°C° 0.1 mm 1 mps 625 mmHg 53%
    16:00 +25°C° 0.1 mm 2 mps 625 mmHg 56%
    17:00 +23°C° 0.1 mm 1 mps 624 mmHg 67%
    18:00 +20°C° 0.1 mm 1 mps 624 mmHg 78%
    19:00 +18°C° 0.1 mm 1 mps 623 mmHg 89%
    20:00 +16°C° 0 mm 1 mps 624 mmHg 87%
    21:00 +16°C° 0 mm 1 mps 624 mmHg 84%
    22:00 +15°C° 0 mm 1 mps 624 mmHg 81%
    23:00 +15°C° 0 mm 1 mps 624 mmHg 79%

    18 October, Friday

    Time Temperature Precipitation Wind Pressure Humidity
    00:00 +14°C° 0 mm 1 mps 623 mmHg 78%
    01:00 +14°C° 0 mm 1 mps 623 mmHg 76%
    02:00 +13°C° 0 mm 1 mps 622 mmHg 73%
    03:00 +13°C° 0 mm 1 mps 622 mmHg 71%
    04:00 +13°C° 0 mm 1 mps 622 mmHg 68%
    05:00 +14°C° 0 mm 1 mps 623 mmHg 66%
    06:00 +14°C° 0 mm 1 mps 623 mmHg 65%
    07:00 +14°C° 0 mm 0 mps 624 mmHg 63%
    08:00 +19°C° 0 mm 1 mps 625 mmHg 54%
    09:00 +23°C° 0 mm 1 mps 626 mmHg 45%
    10:00 +26°C° 0 mm 1 mps 627 mmHg 36%
    11:00 +27°C° 0 mm 1 mps 627 mmHg 35%
    12:00 +27°C° 0 mm 1 mps 627 mmHg 35%
    13:00 +28°C° 0 mm 1 mps 626 mmHg 35%
    14:00 +27°C° 0 mm 2 mps 626 mmHg 39%
    15:00 +26°C° 0 mm 2 mps 625 mmHg 43%
    16:00 +25°C° 0 mm 2 mps 625 mmHg 47%
    17:00 +23°C° 0 mm 2 mps 624 mmHg 61%
    18:00 +20°C° 0 mm 1 mps 624 mmHg 74%
    19:00 +16°C° 0 mm 1 mps 623 mmHg 88%
    20:00 +16°C° 0 mm 1 mps 624 mmHg 87%
    21:00 +16°C° 0 mm 1 mps 624 mmHg 87%
    22:00 +14°C° 0 mm 0 mps 624 mmHg 86%
    23:00 +14°C° 0 mm 0 mps 624 mmHg 84%

    19 October, Saturday

    Time Temperature Precipitation Wind Pressure Humidity
    00:00 +14°C° 0 mm 0 mps 623 mmHg 81%
    01:00 +14°C° 0 mm 0 mps 623 mmHg 79%
    02:00 +13°C° 0 mm 0 mps 623 mmHg 78%
    03:00 +13°C° 0 mm 0 mps 622 mmHg 77%
    04:00 +14°C° 0 mm 1 mps 622 mmHg 77%
    05:00 +14°C° 0 mm 0 mps 623 mmHg 75%
    06:00 +14°C° 0 mm 0 mps 623 mmHg 72%
    07:00 +15°C° 0 mm 0 mps 624 mmHg 70%
    08:00 +20°C° 0 mm 1 mps 625 mmHg 62%
    09:00 +23°C° 0 mm 1 mps 626 mmHg 53%
    10:00 +26°C° 0 mm 1 mps 627 mmHg 45%
    11:00 +27°C° 0 mm 1 mps 627 mmHg 44%
    12:00 +28°C° 0 mm 1 mps 627 mmHg 44%
    13:00 +28°C° 0 mm 1 mps 627 mmHg 43%
    14:00 +27°C° 0.2 mm 1 mps 626 mmHg 50%
    15:00 +26°C° 0.2 mm 1 mps 625 mmHg 57%
    16:00 +24°C° 0.2 mm 1 mps 624 mmHg 64%
    17:00 +22°C° 0.3 mm 1 mps 624 mmHg 72%
    18:00 +20°C° 0.3 mm 1 mps 624 mmHg 80%
    19:00 +18°C° 0.3 mm 1 mps 624 mmHg 87%
    20:00 +18°C° 0 mm 1 mps 624 mmHg 88%
    21:00 +15°C° 0 mm 0 mps 624 mmHg 88%
    22:00 +15°C° 0 mm 0 mps 624 mmHg 89%
    23:00 +15°C° 0 mm 0 mps 624 mmHg 89%

    20 October, Sunday

    Time Temperature Precipitation Wind Pressure Humidity
    00:00 +14°C° 0 mm 0 mps 623 mmHg 89%
    01:00 +15°C° 0 mm 1 mps 623 mmHg 89%
    02:00 +14°C° 0 mm 0 mps 623 mmHg 89%
    03:00 +14°C° 0 mm 0 mps 622 mmHg 90%
    04:00 +13°C° 0 mm 0 mps 622 mmHg 90%
    05:00 +14°C° 0 mm 0 mps 623 mmHg 87%
    06:00 +15°C° 0 mm 0 mps 623 mmHg 85%
    07:00 +16°C° 0 mm 0 mps 624 mmHg 83%
    08:00 +19°C° 0 mm 0 mps 625 mmHg 73%
    09:00 +24°C° 0 mm 1 mps 626 mmHg 62%
    10:00 +27°C° 0 mm 1 mps 627 mmHg 52%
    11:00 +27°C° 0.3 mm 1 mps 627 mmHg 53%
    12:00 +27°C° 0.3 mm 1 mps 626 mmHg 54%
    13:00 +27°C° 0.3 mm 1 mps 626 mmHg 56%
    14:00 +26°C° 1.2 mm 1 mps 625 mmHg 64%
    15:00 +25°C° 1.2 mm 1 mps 624 mmHg 73%
    16:00 +23°C° 1.2 mm 1 mps 623 mmHg 81%
    17:00 +22°C° 1.7 mm 1 mps 624 mmHg 86%
    18:00 +19°C° 1.7 mm 0 mps 624 mmHg 90%
    19:00 +17°C° 1.7 mm 0 mps 624 mmHg 95%
    20:00 +17°C° 1.8 mm 0 mps 624 mmHg 96%
    21:00 +17°C° 1.8 mm 0 mps 624 mmHg 96%
    22:00 +17°C° 1.8 mm 0 mps 624 mmHg 97%
    23:00 +16°C° 1.4 mm 0 mps 624 mmHg 97%
    Show more